Overview Statistics Trail Chart Weather Telemetry Raw packets
 

This is the latest recevied weather packets stored in our database for station/object DG1ROH. If no packets are shown the sender has not sent any weather packets the latest 10 day(s).

<< 131 132 133 134 135 136 137 >>
Time Temp. Humidity Pressure Rain* Wind** Luminosity Snow
1777443175 4.44° C 80% 1029.3 hPa 0 mm - 23 W/m² -
1777443055 3.89° C 81% 1029.3 hPa 0 mm - 23 W/m² -
1777442935 3.89° C 81% 1029.2 hPa 0 mm - 23 W/m² -
1777442816 3.89° C 82% 1029.2 hPa 0 mm - 23 W/m² -
1777442693 3.89° C 83% 1029.2 hPa 0 mm - 23 W/m² -
1777442573 3.33° C 83% 1029.2 hPa 0 mm - 23 W/m² -
1777442452 3.33° C 84% 1029.2 hPa 0 mm - 25 W/m² -
1777442330 3.33° C 85% 1029.2 hPa 0 mm - 25 W/m² -
1777442208 3.33° C 86% 1029.2 hPa 0 mm - 21 W/m² -
1777442088 2.78° C 86% 1029.1 hPa 0 mm - 21 W/m² -
1777441964 2.78° C 87% 1029.1 hPa 0 mm - 21 W/m² -
1777441845 2.22° C 87% 1029.2 hPa 0 mm - 21 W/m² -
1777441722 2.22° C 88% 1029.2 hPa 0 mm - 21 W/m² -
1777441601 2.22° C 89% 1029.1 hPa 0 mm - 23 W/m² -
1777441478 1.67° C 89% 1029.1 hPa 0 mm - 23 W/m² -
1777441358 1.67° C 89% 1029.1 hPa 0 mm - 28 W/m² -
1777441237 1.67° C 90% 1029.1 hPa 0 mm - 32 W/m² -
1777441116 1.11° C 90% 1029.1 hPa 0 mm - 21 W/m² -
1777440997 1.11° C 90% 1029.1 hPa 0 mm - 21 W/m² -
1777440875 0.56° C 90% 1029.1 hPa 0 mm - 21 W/m² -
1777440754 0.56° C 90% 1029.1 hPa 0 mm - 19 W/m² -
1777440633 0.56° C 90% 1029 hPa 0 mm - 19 W/m² -
1777440512 0.56° C 91% 1029 hPa 0 mm - 19 W/m² -
1777440393 0.56° C 91% 1029.1 hPa 0 mm - 19 W/m² -
1777440272 0° C 91% 1029 hPa 0 mm - 19 W/m² -

* Rain latest hour (hover to see other rain measurements)
** Current wind speed in m/s (hover to see current wind gust speed)